M I D A S
Marine Information and Data Acquisition System
Tripno 1282 of the Zeeleeuw from 2007-06-01 07:08:00 to 2007-06-01 14:50:19
Back to CruiseResearch ActivitiesStationsMapUnderway DataData graphs

EquipmentUnitsComments
TimeDGPSUTC
LatitudeDGPSDM.mWGS84
LongitudeDGPSDM.mWGS84
SpeedMeteo Stationm/sRelative wind speed
DirectionMeteo StationdegRelative wind direction
TemperatureMeteo Stationdeg CelciusAir temperature
PressureMeteo StationPaAtmospheric pressure
HumidityMeteo Station%Relative humidity
Missing or incorrect values are displayed as -999
Metereological data collected by the RV Zeeleeuw from 2007-06-01 06:37:52 to 2007-06-01 14:59:49
Time Latitude Longitude Speed Direction Temperature Pressure Humidity
2007-06-01 06:38 51°13.595 2°56.095 -999 -999 -999 -999 -999
2007-06-01 06:39 51°13.596 2°56.095 -999 -999 -999 -999 -999
2007-06-01 06:40 51°13.597 2°56.094 -999 -999 -999 -999 -999
2007-06-01 06:41 51°13.597 2°56.094 -999 -999 -999 -999 -999
2007-06-01 06:42 51°13.597 2°56.095 -999 -999 -999 -999 -999
2007-06-01 06:43 51°13.597 2°56.094 -999 -999 -999 -999 -999
2007-06-01 06:44 51°13.598 2°56.094 -999 -999 -999 -999 -999
2007-06-01 06:45 51°13.599 2°56.094 -999 -999 -999 -999 -999
2007-06-01 06:46 51°13.599 2°56.094 -999 -999 -999 -999 -999
2007-06-01 06:47 51°13.598 2°56.095 -999 -999 -999 -999 -999
2007-06-01 06:48 51°13.599 2°56.094 -999 -999 -999 -999 -999
2007-06-01 06:49 51°13.599 2°56.094 -999 -999 -999 -999 -999
2007-06-01 06:50 51°13.599 2°56.094 -999 -999 -999 -999 -999
2007-06-01 06:51 51°13.599 2°56.094 -999 -999 -999 -999 -999
2007-06-01 06:52 51°13.599 2°56.094 -999 -999 -999 -999 -999
2007-06-01 06:53 51°13.598 2°56.094 -999 -999 -999 -999 -999
2007-06-01 06:54 51°13.596 2°56.094 -999 -999 -999 -999 -999
2007-06-01 06:55 51°13.597 2°56.095 -999 -999 -999 -999 -999
2007-06-01 06:56 51°13.6 2°56.081 -999 -999 -999 -999 -999
2007-06-01 06:57 51°13.627 2°55.987 -999 -999 -999 -999 -999
2007-06-01 06:58 51°13.671 2°55.87 -999 -999 -999 -999 -999
2007-06-01 06:59 51°13.737 2°55.745 -999 -999 -999 -999 -999
2007-06-01 07:00 51°13.825 2°55.647 -999 -999 -999 -999 -999
2007-06-01 07:01 51°13.917 2°55.638 -999 -999 -999 -999 -999
2007-06-01 07:02 51°13.956 2°55.662 -999 -999 -999 -999 -999
2007-06-01 07:03 51°13.993 2°55.542 -999 -999 -999 -999 -999
2007-06-01 07:04 51°14.085 2°55.457 -999 -999 -999 -999 -999
2007-06-01 07:05 51°14.192 2°55.371 -999 -999 -999 -999 -999
2007-06-01 07:06 51°14.317 2°55.172 -999 -999 -999 -999 -999
2007-06-01 07:07 51°14.454 2°54.915 -999 -999 -999 -999 -999
2007-06-01 07:08 51°14.627 2°54.707 -999 -999 -999 -999 -999
2007-06-01 07:09 51°14.804 2°54.504 -999 -999 -999 -999 -999
2007-06-01 07:10 51°14.982 2°54.309 -999 -999 -999 -999 -999
2007-06-01 07:11 51°15.143 2°54.09 -999 -999 -999 -999 -999
2007-06-01 07:12 51°15.33 2°53.927 -999 -999 -999 -999 -999
2007-06-01 07:13 51°15.505 2°53.715 -999 -999 -999 -999 -999
2007-06-01 07:14 51°15.686 2°53.518 -999 -999 -999 -999 -999
2007-06-01 07:15 51°15.869 2°53.331 -999 -999 -999 -999 -999
2007-06-01 07:16 51°16.054 2°53.152 -999 -999 -999 -999 -999
2007-06-01 07:17 51°16.245 2°52.996 -999 -999 -999 -999 -999
2007-06-01 07:18 51°16.439 2°52.86 -999 -999 -999 -999 -999
2007-06-01 07:19 51°16.638 2°52.743 -999 -999 -999 -999 -999
2007-06-01 07:20 51°16.833 2°52.628 -999 -999 -999 -999 -999
2007-06-01 07:21 51°17.027 2°52.514 -999 -999 -999 -999 -999
2007-06-01 07:22 51°17.219 2°52.393 -999 -999 -999 -999 -999
2007-06-01 07:23 51°17.399 2°52.222 -999 -999 -999 -999 -999
2007-06-01 07:24 51°17.528 2°51.949 -999 -999 -999 -999 -999
2007-06-01 07:25 51°17.643 2°51.655 -999 -999 -999 -999 -999
2007-06-01 07:26 51°17.754 2°51.356 -999 -999 -999 -999 -999
2007-06-01 07:27 51°17.849 2°51.032 -999 -999 -999 -999 -999
2007-06-01 07:28 51°17.944 2°50.703 -999 -999 -999 -999 -999
2007-06-01 07:29 51°18.038 2°50.375 -999 -999 -999 -999 -999
2007-06-01 07:30 51°18.133 2°50.047 -999 -999 -999 -999 -999
2007-06-01 07:31 51°18.227 2°49.718 -999 -999 -999 -999 -999
2007-06-01 07:32 51°18.32 2°49.392 -999 -999 -999 -999 -999
2007-06-01 07:33 51°18.413 2°49.064 -999 -999 -999 -999 -999
2007-06-01 07:34 51°18.508 2°48.733 -999 -999 -999 -999 -999
2007-06-01 07:35 51°18.605 2°48.4 -999 -999 -999 -999 -999
2007-06-01 07:36 51°18.702 2°48.067 -999 -999 -999 -999 -999
2007-06-01 07:37 51°18.796 2°47.732 -999 -999 -999 -999 -999
2007-06-01 07:38 51°18.89 2°47.397 -999 -999 -999 -999 -999
2007-06-01 07:39 51°18.983 2°47.06 -999 -999 -999 -999 -999
2007-06-01 07:40 51°19.076 2°46.717 -999 -999 -999 -999 -999
2007-06-01 07:41 51°19.17 2°46.372 -999 -999 -999 -999 -999
2007-06-01 07:42 51°19.264 2°46.026 -999 -999 -999 -999 -999
2007-06-01 07:43 51°19.358 2°45.683 -999 -999 -999 -999 -999
2007-06-01 07:44 51°19.455 2°45.346 -999 -999 -999 -999 -999
2007-06-01 07:45 51°19.556 2°45.007 -999 -999 -999 -999 -999
2007-06-01 07:46 51°19.653 2°44.669 -999 -999 -999 -999 -999
2007-06-01 07:47 51°19.749 2°44.332 -999 -999 -999 -999 -999
2007-06-01 07:48 51°19.843 2°43.991 -999 -999 -999 -999 -999
2007-06-01 07:49 51°19.938 2°43.648 -999 -999 -999 -999 -999
2007-06-01 07:50 51°20.032 2°43.304 -999 -999 -999 -999 -999
2007-06-01 07:51 51°20.126 2°42.96 -999 -999 -999 -999 -999
2007-06-01 07:52 51°20.219 2°42.616 -999 -999 -999 -999 -999
2007-06-01 07:53 51°20.313 2°42.274 -999 -999 -999 -999 -999
2007-06-01 07:54 51°20.41 2°41.935 -999 -999 -999 -999 -999
2007-06-01 07:55 51°20.508 2°41.599 -999 -999 -999 -999 -999
2007-06-01 07:56 51°20.603 2°41.264 -999 -999 -999 -999 -999
2007-06-01 07:57 51°20.672 2°40.909 -999 -999 -999 -999 -999
2007-06-01 07:58 51°20.706 2°40.536 -999 -999 -999 -999 -999
2007-06-01 07:59 51°20.739 2°40.164 -999 -999 -999 -999 -999
2007-06-01 08:00 51°20.772 2°39.793 -999 -999 -999 -999 -999
2007-06-01 08:01 51°20.8 2°39.418 -999 -999 -999 -999 -999
2007-06-01 08:02 51°20.813 2°39.039 -999 -999 -999 -999 -999
2007-06-01 08:03 51°20.83 2°38.658 -999 -999 -999 -999 -999
2007-06-01 08:04 51°20.85 2°38.278 -999 -999 -999 -999 -999
2007-06-01 08:05 51°20.869 2°37.9 -999 -999 -999 -999 -999
2007-06-01 08:06 51°20.887 2°37.52 -999 -999 -999 -999 -999
2007-06-01 08:07 51°20.906 2°37.139 -999 -999 -999 -999 -999
2007-06-01 08:08 51°20.926 2°36.757 -999 -999 -999 -999 -999
2007-06-01 08:09 51°20.948 2°36.374 -999 -999 -999 -999 -999
2007-06-01 08:10 51°20.969 2°35.989 -999 -999 -999 -999 -999
2007-06-01 08:11 51°20.991 2°35.603 -999 -999 -999 -999 -999
2007-06-01 08:12 51°21.012 2°35.217 -999 -999 -999 -999 -999
2007-06-01 08:13 51°21.033 2°34.826 -999 -999 -999 -999 -999
2007-06-01 08:14 51°21.101 2°34.46 -999 -999 -999 -999 -999
2007-06-01 08:15 51°21.233 2°34.148 -999 -999 -999 -999 -999
2007-06-01 08:16 51°21.375 2°33.851 -999 -999 -999 -999 -999
2007-06-01 08:17 51°21.517 2°33.563 -999 -999 -999 -999 -999
2007-06-01 08:18 51°21.68 2°33.334 -999 -999 -999 -999 -999
2007-06-01 08:19 51°21.872 2°33.198 -999 -999 -999 -999 -999
2007-06-01 08:20 51°22.066 2°33.074 -999 -999 -999 -999 -999
2007-06-01 08:21 51°22.261 2°32.958 -999 -999 -999 -999 -999
2007-06-01 08:22 51°22.451 2°32.814 -999 -999 -999 -999 -999
2007-06-01 08:23 51°22.6 2°32.548 -999 -999 -999 -999 -999
2007-06-01 08:24 51°22.65 2°32.177 -999 -999 -999 -999 -999
2007-06-01 08:25 51°22.643 2°31.776 -999 -999 -999 -999 -999
2007-06-01 08:26 51°22.641 2°31.373 -999 -999 -999 -999 -999
2007-06-01 08:27 51°22.644 2°30.971 -999 -999 -999 -999 -999
2007-06-01 08:28 51°22.643 2°30.57 -999 -999 -999 -999 -999
2007-06-01 08:29 51°22.636 2°30.168 -999 -999 -999 -999 -999
2007-06-01 08:30 51°22.629 2°29.768 -999 -999 -999 -999 -999
2007-06-01 08:31 51°22.622 2°29.37 -999 -999 -999 -999 -999
2007-06-01 08:32 51°22.617 2°28.97 -999 -999 -999 -999 -999
2007-06-01 08:33 51°22.602 2°28.568 -999 -999 -999 -999 -999
2007-06-01 08:34 51°22.584 2°28.165 -999 -999 -999 -999 -999
2007-06-01 08:35 51°22.567 2°27.761 -999 -999 -999 -999 -999
2007-06-01 08:36 51°22.55 2°27.357 -999 -999 -999 -999 -999
2007-06-01 08:37 51°22.532 2°26.952 -999 -999 -999 -999 -999
2007-06-01 08:38 51°22.516 2°26.547 -999 -999 -999 -999 -999
2007-06-01 08:39 51°22.496 2°26.145 -999 -999 -999 -999 -999
2007-06-01 08:40 51°22.489 2°25.746 -999 -999 -999 -999 -999
2007-06-01 08:41 51°22.579 2°25.406 -999 -999 -999 -999 -999
2007-06-01 08:42 51°22.758 2°25.222 -999 -999 -999 -999 -999
2007-06-01 08:43 51°22.96 2°25.203 -999 -999 -999 -999 -999
2007-06-01 08:44 51°23.16 2°25.243 -999 -999 -999 -999 -999
2007-06-01 08:45 51°23.357 2°25.297 -999 -999 -999 -999 -999
2007-06-01 08:46 51°23.556 2°25.347 -999 -999 -999 -999 -999
2007-06-01 08:47 51°23.753 2°25.407 -999 -999 -999 -999 -999
2007-06-01 08:48 51°23.951 2°25.464 -999 -999 -999 -999 -999
2007-06-01 08:49 51°24.149 2°25.519 -999 -999 -999 -999 -999
2007-06-01 08:50 51°24.346 2°25.572 -999 -999 -999 -999 -999
2007-06-01 08:51 51°24.542 2°25.625 -999 -999 -999 -999 -999
2007-06-01 08:52 51°24.738 2°25.676 -999 -999 -999 -999 -999
2007-06-01 08:53 51°24.934 2°25.727 -999 -999 -999 -999 -999
2007-06-01 08:54 51°25.129 2°25.776 -999 -999 -999 -999 -999
2007-06-01 08:55 51°25.321 2°25.841 -999 -999 -999 -999 -999
2007-06-01 08:56 51°25.513 2°25.91 -999 -999 -999 -999 -999
2007-06-01 08:57 51°25.704 2°25.979 -999 -999 -999 -999 -999
2007-06-01 08:58 51°25.893 2°26.047 -999 -999 -999 -999 -999
2007-06-01 08:59 51°26.082 2°26.121 -999 -999 -999 -999 -999
2007-06-01 09:00 51°26.274 2°26.178 -999 -999 -999 -999 -999
2007-06-01 09:01 51°26.468 2°26.233 -999 -999 -999 -999 -999
2007-06-01 09:02 51°26.66 2°26.289 -999 -999 -999 -999 -999
2007-06-01 09:03 51°26.853 2°26.343 -999 -999 -999 -999 -999
2007-06-01 09:04 51°27.046 2°26.4 -999 -999 -999 -999 -999
2007-06-01 09:05 51°27.24 2°26.458 -999 -999 -999 -999 -999
2007-06-01 09:06 51°27.434 2°26.517 -999 -999 -999 -999 -999
2007-06-01 09:07 51°27.628 2°26.578 -999 -999 -999 -999 -999
2007-06-01 09:08 51°27.823 2°26.64 -999 -999 -999 -999 -999
2007-06-01 09:09 51°28.018 2°26.701 -999 -999 -999 -999 -999
2007-06-01 09:10 51°28.214 2°26.765 -999 -999 -999 -999 -999
2007-06-01 09:11 51°28.41 2°26.83 -999 -999 -999 -999 -999
2007-06-01 09:12 51°28.607 2°26.894 -999 -999 -999 -999 -999
2007-06-01 09:13 51°28.802 2°26.833 -999 -999 -999 -999 -999
2007-06-01 09:14 51°28.937 2°26.577 -999 -999 -999 -999 -999
2007-06-01 09:15 51°29 2°26.231 -999 -999 -999 -999 -999
2007-06-01 09:16 51°29.066 2°25.886 -999 -999 -999 -999 -999
2007-06-01 09:17 51°29.134 2°25.545 -999 -999 -999 -999 -999
2007-06-01 09:18 51°29.206 2°25.208 -999 -999 -999 -999 -999
2007-06-01 09:19 51°29.282 2°24.875 -999 -999 -999 -999 -999
2007-06-01 09:20 51°29.355 2°24.539 -999 -999 -999 -999 -999
2007-06-01 09:21 51°29.429 2°24.199 -999 -999 -999 -999 -999
2007-06-01 09:22 51°29.533 2°23.89 -999 -999 -999 -999 -999
2007-06-01 09:23 51°29.713 2°23.771 -999 -999 -999 -999 -999
2007-06-01 09:24 51°29.873 2°23.921 -999 -999 -999 -999 -999
2007-06-01 09:25 51°30.011 2°24.132 -999 -999 -999 -999 -999
2007-06-01 09:26 51°30.17 2°24.301 -999 -999 -999 -999 -999
2007-06-01 09:27 51°30.335 2°24.461 -999 -999 -999 -999 -999
2007-06-01 09:28 51°30.503 2°24.618 -999 -999 -999 -999 -999
2007-06-01 09:29 51°30.672 2°24.774 -999 -999 -999 -999 -999
2007-06-01 09:30 51°30.841 2°24.927 -999 -999 -999 -999 -999
2007-06-01 09:31 51°31.01 2°25.084 -999 -999 -999 -999 -999
2007-06-01 09:32 51°31.176 2°25.25 -999 -999 -999 -999 -999
2007-06-01 09:33 51°31.342 2°25.417 -999 -999 -999 -999 -999
2007-06-01 09:34 51°31.508 2°25.585 -999 -999 -999 -999 -999
2007-06-01 09:35 51°31.675 2°25.75 -999 -999 -999 -999 -999
2007-06-01 09:36 51°31.841 2°25.915 -999 -999 -999 -999 -999
2007-06-01 09:37 51°32.01 2°26.08 -999 -999 -999 -999 -999
2007-06-01 09:38 51°32.178 2°26.247 -999 -999 -999 -999 -999
2007-06-01 09:39 51°32.346 2°26.414 -999 -999 -999 -999 -999
2007-06-01 09:40 51°32.516 2°26.579 -999 -999 -999 -999 -999
2007-06-01 09:41 51°32.686 2°26.748 -999 -999 -999 -999 -999
2007-06-01 09:42 51°32.854 2°26.921 -999 -999 -999 -999 -999
2007-06-01 09:43 51°33.025 2°27.089 -999 -999 -999 -999 -999
2007-06-01 09:44 51°33.194 2°27.256 -999 -999 -999 -999 -999
2007-06-01 09:45 51°33.362 2°27.426 -999 -999 -999 -999 -999
2007-06-01 09:46 51°33.531 2°27.599 -999 -999 -999 -999 -999
2007-06-01 09:47 51°33.699 2°27.776 -999 -999 -999 -999 -999
2007-06-01 09:48 51°33.866 2°27.954 -999 -999 -999 -999 -999
2007-06-01 09:49 51°34.033 2°28.131 -999 -999 -999 -999 -999
2007-06-01 09:50 51°34.201 2°28.308 -999 -999 -999 -999 -999
2007-06-01 09:51 51°34.367 2°28.484 -999 -999 -999 -999 -999
2007-06-01 09:52 51°34.534 2°28.664 -999 -999 -999 -999 -999
2007-06-01 09:53 51°34.702 2°28.842 -999 -999 -999 -999 -999
2007-06-01 09:54 51°34.867 2°29.02 -999 -999 -999 -999 -999
2007-06-01 09:55 51°35.036 2°29.186 -999 -999 -999 -999 -999
2007-06-01 09:56 51°35.205 2°29.352 -999 -999 -999 -999 -999
2007-06-01 09:57 51°35.373 2°29.519 -999 -999 -999 -999 -999
2007-06-01 09:58 51°35.543 2°29.685 -999 -999 -999 -999 -999
2007-06-01 09:59 51°35.711 2°29.855 -999 -999 -999 -999 -999
2007-06-01 10:00 51°35.88 2°30.024 -999 -999 -999 -999 -999
2007-06-01 10:01 51°36.048 2°30.192 -999 -999 -999 -999 -999
2007-06-01 10:02 51°36.216 2°30.362 -999 -999 -999 -999 -999
2007-06-01 10:03 51°36.383 2°30.53 -999 -999 -999 -999 -999
2007-06-01 10:04 51°36.551 2°30.702 -999 -999 -999 -999 -999
2007-06-01 10:05 51°36.718 2°30.873 -999 -999 -999 -999 -999
2007-06-01 10:06 51°36.884 2°31.046 -999 -999 -999 -999 -999
2007-06-01 10:07 51°37.043 2°31.231 -999 -999 -999 -999 -999
2007-06-01 10:08 51°37.152 2°31.499 -999 -999 -999 -999 -999
2007-06-01 10:09 51°37.234 2°31.797 -999 -999 -999 -999 -999
2007-06-01 10:10 51°37.305 2°32.104 -999 -999 -999 -999 -999
2007-06-01 10:11 51°37.371 2°32.414 -999 -999 -999 -999 -999
2007-06-01 10:12 51°37.442 2°32.724 -999 -999 -999 -999 -999
2007-06-01 10:13 51°37.513 2°33.037 -999 -999 -999 -999 -999
2007-06-01 10:14 51°37.585 2°33.35 -999 -999 -999 -999 -999
2007-06-01 10:15 51°37.659 2°33.664 -999 -999 -999 -999 -999
2007-06-01 10:16 51°37.733 2°33.979 -999 -999 -999 -999 -999
2007-06-01 10:17 51°37.799 2°34.301 -999 -999 -999 -999 -999
2007-06-01 10:18 51°37.862 2°34.626 -999 -999 -999 -999 -999
2007-06-01 10:19 51°37.918 2°34.952 -999 -999 -999 -999 -999
2007-06-01 10:20 51°37.972 2°35.281 -999 -999 -999 -999 -999
2007-06-01 10:21 51°38.023 2°35.609 -999 -999 -999 -999 -999
2007-06-01 10:22 51°38.073 2°35.935 -999 -999 -999 -999 -999
2007-06-01 10:23 51°38.122 2°36.259 -999 -999 -999 -999 -999
2007-06-01 10:24 51°38.171 2°36.584 -999 -999 -999 -999 -999
2007-06-01 10:25 51°38.221 2°36.909 -999 -999 -999 -999 -999
2007-06-01 10:26 51°38.272 2°37.236 -999 -999 -999 -999 -999
2007-06-01 10:27 51°38.325 2°37.565 -999 -999 -999 -999 -999
2007-06-01 10:28 51°38.377 2°37.894 -999 -999 -999 -999 -999
2007-06-01 10:29 51°38.43 2°38.224 -999 -999 -999 -999 -999
2007-06-01 10:30 51°38.484 2°38.555 -999 -999 -999 -999 -999
2007-06-01 10:31 51°38.538 2°38.884 -999 -999 -999 -999 -999
2007-06-01 10:32 51°38.592 2°39.213 -999 -999 -999 -999 -999
2007-06-01 10:33 51°38.645 2°39.543 -999 -999 -999 -999 -999
2007-06-01 10:34 51°38.7 2°39.872 -999 -999 -999 -999 -999
2007-06-01 10:35 51°38.752 2°40.188 -999 -999 -999 -999 -999
2007-06-01 10:36 51°38.789 2°40.352 -999 -999 -999 -999 -999
2007-06-01 10:37 51°38.811 2°40.441 -999 -999 -999 -999 -999
2007-06-01 10:38 51°38.819 2°40.541 -999 -999 -999 -999 -999
2007-06-01 10:39 51°38.813 2°40.748 -999 -999 -999 -999 -999
2007-06-01 10:40 51°38.762 2°40.978 -999 -999 -999 -999 -999
2007-06-01 10:41 51°38.657 2°41.151 -999 -999 -999 -999 -999
2007-06-01 10:42 51°38.566 2°41.179 -999 -999 -999 -999 -999
2007-06-01 10:43 51°38.505 2°41.162 -999 -999 -999 -999 -999
2007-06-01 10:44 51°38.456 2°41.15 -999 -999 -999 -999 -999
2007-06-01 10:45 51°38.407 2°41.146 -999 -999 -999 -999 -999
2007-06-01 10:46 51°38.353 2°41.146 -999 -999 -999 -999 -999
2007-06-01 10:47 51°38.297 2°41.148 -999 -999 -999 -999 -999
2007-06-01 10:48 51°38.241 2°41.154 -999 -999 -999 -999 -999
2007-06-01 10:49 51°38.184 2°41.16 -999 -999 -999 -999 -999
2007-06-01 10:50 51°38.129 2°41.168 -999 -999 -999 -999 -999
2007-06-01 10:51 51°38.073 2°41.178 -999 -999 -999 -999 -999
2007-06-01 10:52 51°38.017 2°41.19 -999 -999 -999 -999 -999
2007-06-01 10:53 51°37.961 2°41.205 -999 -999 -999 -999 -999
2007-06-01 10:54 51°37.906 2°41.219 -999 -999 -999 -999 -999
2007-06-01 10:55 51°37.851 2°41.232 -999 -999 -999 -999 -999
2007-06-01 10:56 51°37.797 2°41.248 -999 -999 -999 -999 -999
2007-06-01 10:57 51°37.742 2°41.268 -999 -999 -999 -999 -999
2007-06-01 10:58 51°37.69 2°41.281 -999 -999 -999 -999 -999
2007-06-01 10:59 51°37.636 2°41.293 -999 -999 -999 -999 -999
2007-06-01 11:00 51°37.581 2°41.304 -999 -999 -999 -999 -999
2007-06-01 11:01 51°37.527 2°41.313 -999 -999 -999 -999 -999
2007-06-01 11:02 51°37.474 2°41.321 -999 -999 -999 -999 -999
2007-06-01 11:03 51°37.42 2°41.324 -999 -999 -999 -999 -999
2007-06-01 11:04 51°37.371 2°41.31 -999 -999 -999 -999 -999
2007-06-01 11:05 51°37.33 2°41.28 -999 -999 -999 -999 -999
2007-06-01 11:06 51°37.297 2°41.246 -999 -999 -999 -999 -999
2007-06-01 11:07 51°37.278 2°41.217 -999 -999 -999 -999 -999
2007-06-01 11:08 51°37.276 2°41.178 -999 -999 -999 -999 -999
2007-06-01 11:09 51°37.28 2°41.156 -999 -999 -999 -999 -999
2007-06-01 11:10 51°37.279 2°41.144 -999 -999 -999 -999 -999
2007-06-01 11:11 51°37.243 2°41.088 -999 -999 -999 -999 -999
2007-06-01 11:12 51°37.182 2°41.189 -999 -999 -999 -999 -999
2007-06-01 11:13 51°37.142 2°41.486 -999 -999 -999 -999 -999
2007-06-01 11:14 51°37.123 2°41.848 -999 -999 -999 -999 -999
2007-06-01 11:15 51°37.19 2°41.993 -999 -999 -999 -999 -999
2007-06-01 11:16 51°37.251 2°41.982 -999 -999 -999 -999 -999
2007-06-01 11:17 51°37.308 2°41.97 -999 -999 -999 -999 -999
2007-06-01 11:18 51°37.364 2°41.992 -999 -999 -999 -999 -999
2007-06-01 11:19 51°37.418 2°42.037 -999 -999 -999 -999 -999
2007-06-01 11:20 51°37.473 2°42.082 -999 -999 -999 -999 -999
2007-06-01 11:21 51°37.528 2°42.124 -999 -999 -999 -999 -999
2007-06-01 11:22 51°37.583 2°42.158 -999 -999 -999 -999 -999
2007-06-01 11:23 51°37.638 2°42.178 -999 -999 -999 -999 -999
2007-06-01 11:24 51°37.692 2°42.207 -999 -999 -999 -999 -999
2007-06-01 11:25 51°37.744 2°42.243 -999 -999 -999 -999 -999
2007-06-01 11:26 51°37.796 2°42.25 -999 -999 -999 -999 -999
2007-06-01 11:27 51°37.85 2°42.247 -999 -999 -999 -999 -999
2007-06-01 11:28 51°37.906 2°42.249 -999 -999 -999 -999 -999
2007-06-01 11:29 51°37.962 2°42.25 -999 -999 -999 -999 -999
2007-06-01 11:30 51°38.018 2°42.246 -999 -999 -999 -999 -999
2007-06-01 11:31 51°38.073 2°42.237 -999 -999 -999 -999 -999
2007-06-01 11:32 51°38.127 2°42.224 -999 -999 -999 -999 -999
2007-06-01 11:33 51°38.182 2°42.213 -999 -999 -999 -999 -999
2007-06-01 11:34 51°38.239 2°42.213 -999 -999 -999 -999 -999
2007-06-01 11:35 51°38.297 2°42.226 -999 -999 -999 -999 -999
2007-06-01 11:36 51°38.355 2°42.246 -999 -999 -999 -999 -999
2007-06-01 11:37 51°38.41 2°42.262 -999 -999 -999 -999 -999
2007-06-01 11:38 51°38.462 2°42.27 -999 -999 -999 -999 -999
2007-06-01 11:39 51°38.512 2°42.268 -999 -999 -999 -999 -999
2007-06-01 11:40 51°38.56 2°42.26 -999 -999 -999 -999 -999
2007-06-01 11:41 51°38.608 2°42.252 -999 -999 -999 -999 -999
2007-06-01 11:42 51°38.657 2°42.248 -999 -999 -999 -999 -999
2007-06-01 11:43 51°38.708 2°42.252 -999 -999 -999 -999 -999
2007-06-01 11:44 51°38.758 2°42.273 -999 -999 -999 -999 -999
2007-06-01 11:45 51°38.8 2°42.307 -999 -999 -999 -999 -999
2007-06-01 11:46 51°38.833 2°42.351 -999 -999 -999 -999 -999
2007-06-01 11:47 51°38.853 2°42.416 -999 -999 -999 -999 -999
2007-06-01 11:48 51°38.847 2°42.491 -999 -999 -999 -999 -999
2007-06-01 11:49 51°38.834 2°42.545 -999 -999 -999 -999 -999
2007-06-01 11:50 51°38.823 2°42.591 -999 -999 -999 -999 -999
2007-06-01 11:51 51°38.812 2°42.641 -999 -999 -999 -999 -999
2007-06-01 11:52 51°38.78 2°42.697 -999 -999 -999 -999 -999
2007-06-01 11:53 51°38.701 2°42.677 -999 -999 -999 -999 -999
2007-06-01 11:54 51°38.526 2°42.607 -999 -999 -999 -999 -999
2007-06-01 11:55 51°38.32 2°42.519 -999 -999 -999 -999 -999
2007-06-01 11:56 51°38.114 2°42.427 -999 -999 -999 -999 -999
2007-06-01 11:57 51°37.91 2°42.328 -999 -999 -999 -999 -999
2007-06-01 11:58 51°37.707 2°42.224 -999 -999 -999 -999 -999
2007-06-01 11:59 51°37.505 2°42.125 -999 -999 -999 -999 -999
2007-06-01 12:00 51°37.35 2°41.924 -999 -999 -999 -999 -999
2007-06-01 12:01 51°37.319 2°41.608 -999 -999 -999 -999 -999
2007-06-01 12:02 51°37.339 2°41.289 -999 -999 -999 -999 -999
2007-06-01 12:03 51°37.345 2°40.967 -999 -999 -999 -999 -999
2007-06-01 12:04 51°37.349 2°40.643 -999 -999 -999 -999 -999
2007-06-01 12:05 51°37.356 2°40.314 -999 -999 -999 -999 -999
2007-06-01 12:06 51°37.364 2°39.98 -999 -999 -999 -999 -999
2007-06-01 12:07 51°37.371 2°39.642 -999 -999 -999 -999 -999
2007-06-01 12:08 51°37.385 2°39.297 -999 -999 -999 -999 -999
2007-06-01 12:09 51°37.397 2°38.964 -999 -999 -999 -999 -999
2007-06-01 12:10 51°37.41 2°38.625 -999 -999 -999 -999 -999
2007-06-01 12:11 51°37.421 2°38.287 -999 -999 -999 -999 -999
2007-06-01 12:12 51°37.432 2°37.95 -999 -999 -999 -999 -999
2007-06-01 12:13 51°37.442 2°37.613 -999 -999 -999 -999 -999
2007-06-01 12:14 51°37.45 2°37.275 -999 -999 -999 -999 -999
2007-06-01 12:15 51°37.46 2°36.934 -999 -999 -999 -999 -999
2007-06-01 12:16 51°37.47 2°36.593 -999 -999 -999 -999 -999
2007-06-01 12:17 51°37.479 2°36.251 -999 -999 -999 -999 -999
2007-06-01 12:18 51°37.47 2°35.924 -999 -999 -999 -999 -999
2007-06-01 12:19 51°37.459 2°35.594 -999 -999 -999 -999 -999
2007-06-01 12:20 51°37.449 2°35.266 -999 -999 -999 -999 -999
2007-06-01 12:21 51°37.429 2°34.945 -999 -999 -999 -999 -999
2007-06-01 12:22 51°37.332 2°34.67 -999 -999 -999 -999 -999
2007-06-01 12:23 51°37.205 2°34.426 -999 -999 -999 -999 -999
2007-06-01 12:24 51°37.081 2°34.182 -999 -999 -999 -999 -999
2007-06-01 12:25 51°36.965 2°33.935 -999 -999 -999 -999 -999
2007-06-01 12:26 51°36.8 2°33.768 -999 -999 -999 -999 -999
2007-06-01 12:27 51°36.604 2°33.679 -999 -999 -999 -999 -999
2007-06-01 12:28 51°36.411 2°33.561 -999 -999 -999 -999 -999
2007-06-01 12:29 51°36.224 2°33.444 -999 -999 -999 -999 -999
2007-06-01 12:30 51°36.032 2°33.332 -999 -999 -999 -999 -999
2007-06-01 12:31 51°35.84 2°33.219 -999 -999 -999 -999 -999
2007-06-01 12:32 51°35.649 2°33.105 -999 -999 -999 -999 -999
2007-06-01 12:33 51°35.455 2°32.986 -999 -999 -999 -999 -999
2007-06-01 12:34 51°35.268 2°32.874 -999 -999 -999 -999 -999
2007-06-01 12:35 51°35.076 2°32.764 -999 -999 -999 -999 -999
2007-06-01 12:36 51°34.882 2°32.661 -999 -999 -999 -999 -999
2007-06-01 12:37 51°34.688 2°32.563 -999 -999 -999 -999 -999
2007-06-01 12:38 51°34.494 2°32.464 -999 -999 -999 -999 -999
2007-06-01 12:39 51°34.299 2°32.367 -999 -999 -999 -999 -999
2007-06-01 12:40 51°34.103 2°32.267 -999 -999 -999 -999 -999
2007-06-01 12:41 51°33.908 2°32.168 -999 -999 -999 -999 -999
2007-06-01 12:42 51°33.71 2°32.062 -999 -999 -999 -999 -999
2007-06-01 12:43 51°33.517 2°31.96 -999 -999 -999 -999 -999
2007-06-01 12:44 51°33.319 2°31.852 -999 -999 -999 -999 -999
2007-06-01 12:45 51°33.127 2°31.75 -999 -999 -999 -999 -999
2007-06-01 12:46 51°32.933 2°31.643 -999 -999 -999 -999 -999
2007-06-01 12:47 51°32.738 2°31.534 -999 -999 -999 -999 -999
2007-06-01 12:48 51°32.543 2°31.429 -999 -999 -999 -999 -999
2007-06-01 12:49 51°32.346 2°31.32 -999 -999 -999 -999 -999
2007-06-01 12:50 51°32.144 2°31.327 -999 -999 -999 -999 -999
2007-06-01 12:51 51°31.948 2°31.466 -999 -999 -999 -999 -999
2007-06-01 12:52 51°31.754 2°31.625 -999 -999 -999 -999 -999
2007-06-01 12:53 51°31.552 2°31.768 -999 -999 -999 -999 -999
2007-06-01 12:54 51°31.355 2°31.91 -999 -999 -999 -999 -999
2007-06-01 12:55 51°31.164 2°32.05 -999 -999 -999 -999 -999
2007-06-01 12:56 51°30.969 2°32.185 -999 -999 -999 -999 -999
2007-06-01 12:57 51°30.781 2°32.319 -999 -999 -999 -999 -999
2007-06-01 12:58 51°30.587 2°32.458 -999 -999 -999 -999 -999
2007-06-01 12:59 51°30.399 2°32.592 -999 -999 -999 -999 -999
2007-06-01 13:00 51°30.204 2°32.734 -999 -999 -999 -999 -999
2007-06-01 13:01 51°30.014 2°32.875 -999 -999 -999 -999 -999
2007-06-01 13:02 51°29.833 2°33.06 -999 -999 -999 -999 -999
2007-06-01 13:03 51°29.744 2°33.409 -999 -999 -999 -999 -999
2007-06-01 13:04 51°29.724 2°33.807 -999 -999 -999 -999 -999
2007-06-01 13:05 51°29.702 2°34.201 -999 -999 -999 -999 -999
2007-06-01 13:06 51°29.688 2°34.581 -999 -999 -999 -999 -999
2007-06-01 13:07 51°29.679 2°34.966 -999 -999 -999 -999 -999
2007-06-01 13:08 51°29.672 2°35.339 -999 -999 -999 -999 -999
2007-06-01 13:09 51°29.664 2°35.727 -999 -999 -999 -999 -999
2007-06-01 13:10 51°29.655 2°36.104 -999 -999 -999 -999 -999
2007-06-01 13:11 51°29.645 2°36.487 -999 -999 -999 -999 -999
2007-06-01 13:12 51°29.632 2°36.878 -999 -999 -999 -999 -999
2007-06-01 13:13 51°29.616 2°37.266 -999 -999 -999 -999 -999
2007-06-01 13:14 51°29.596 2°37.652 -999 -999 -999 -999 -999
2007-06-01 13:15 51°29.46 2°37.909 -999 -999 -999 -999 -999
2007-06-01 13:16 51°29.255 2°38.016 -999 -999 -999 -999 -999
2007-06-01 13:17 51°29.059 2°38.119 -999 -999 -999 -999 -999
2007-06-01 13:18 51°28.857 2°38.203 -999 -999 -999 -999 -999
2007-06-01 13:19 51°28.649 2°38.289 -999 -999 -999 -999 -999
2007-06-01 13:20 51°28.448 2°38.375 -999 -999 -999 -999 -999
2007-06-01 13:21 51°28.244 2°38.463 -999 -999 -999 -999 -999
2007-06-01 13:22 51°28.047 2°38.551 -999 -999 -999 -999 -999
2007-06-01 13:23 51°27.844 2°38.643 -999 -999 -999 -999 -999
2007-06-01 13:24 51°27.648 2°38.733 -999 -999 -999 -999 -999
2007-06-01 13:25 51°27.447 2°38.824 -999 -999 -999 -999 -999
2007-06-01 13:26 51°27.251 2°38.909 -999 -999 -999 -999 -999
2007-06-01 13:27 51°27.047 2°38.999 -999 -999 -999 -999 -999
2007-06-01 13:28 51°26.848 2°39.091 -999 -999 -999 -999 -999
2007-06-01 13:29 51°26.646 2°39.173 -999 -999 -999 -999 -999
2007-06-01 13:30 51°26.447 2°39.256 -999 -999 -999 -999 -999
2007-06-01 13:31 51°26.25 2°39.337 -999 -999 -999 -999 -999
2007-06-01 13:32 51°26.046 2°39.424 -999 -999 -999 -999 -999
2007-06-01 13:33 51°25.851 2°39.518 -999 -999 -999 -999 -999
2007-06-01 13:34 51°25.655 2°39.66 -999 -999 -999 -999 -999
2007-06-01 13:35 51°25.467 2°39.804 -999 -999 -999 -999 -999
2007-06-01 13:36 51°25.273 2°39.958 -999 -999 -999 -999 -999
2007-06-01 13:37 51°25.08 2°40.108 -999 -999 -999 -999 -999
2007-06-01 13:38 51°24.887 2°40.234 -999 -999 -999 -999 -999
2007-06-01 13:39 51°24.682 2°40.333 -999 -999 -999 -999 -999
2007-06-01 13:40 51°24.482 2°40.407 -999 -999 -999 -999 -999
2007-06-01 13:41 51°24.274 2°40.47 -999 -999 -999 -999 -999
2007-06-01 13:42 51°24.074 2°40.533 -999 -999 -999 -999 -999
2007-06-01 13:43 51°23.868 2°40.613 -999 -999 -999 -999 -999
2007-06-01 13:44 51°23.665 2°40.687 -999 -999 -999 -999 -999
2007-06-01 13:45 51°23.462 2°40.749 -999 -999 -999 -999 -999
2007-06-01 13:46 51°23.256 2°40.788 -999 -999 -999 -999 -999
2007-06-01 13:47 51°23.054 2°40.822 -999 -999 -999 -999 -999
2007-06-01 13:48 51°22.843 2°40.846 -999 -999 -999 -999 -999
2007-06-01 13:49 51°22.634 2°40.854 -999 -999 -999 -999 -999
2007-06-01 13:50 51°22.425 2°40.862 -999 -999 -999 -999 -999
2007-06-01 13:51 51°22.217 2°40.872 -999 -999 -999 -999 -999
2007-06-01 13:52 51°22.009 2°40.884 -999 -999 -999 -999 -999
2007-06-01 13:53 51°21.801 2°40.894 -999 -999 -999 -999 -999
2007-06-01 13:54 51°21.598 2°40.907 -999 -999 -999 -999 -999
2007-06-01 13:55 51°21.388 2°40.919 -999 -999 -999 -999 -999
2007-06-01 13:56 51°21.186 2°40.93 -999 -999 -999 -999 -999
2007-06-01 13:57 51°20.977 2°40.94 -999 -999 -999 -999 -999
2007-06-01 13:58 51°20.782 2°41.026 -999 -999 -999 -999 -999
2007-06-01 13:59 51°20.629 2°41.281 -999 -999 -999 -999 -999
2007-06-01 14:00 51°20.543 2°41.625 -999 -999 -999 -999 -999
2007-06-01 14:01 51°20.462 2°41.973 -999 -999 -999 -999 -999
2007-06-01 14:02 51°20.371 2°42.319 -999 -999 -999 -999 -999
2007-06-01 14:03 51°20.282 2°42.656 -999 -999 -999 -999 -999
2007-06-01 14:04 51°20.188 2°43.002 -999 -999 -999 -999 -999
2007-06-01 14:05 51°20.095 2°43.335 -999 -999 -999 -999 -999
2007-06-01 14:06 51°19.99 2°43.667 -999 -999 -999 -999 -999
2007-06-01 14:07 51°19.884 2°43.987 -999 -999 -999 -999 -999
2007-06-01 14:08 51°19.777 2°44.31 -999 -999 -999 -999 -999
2007-06-01 14:09 51°19.673 2°44.636 -999 -999 -999 -999 -999
2007-06-01 14:10 51°19.571 2°44.966 -999 -999 -999 -999 -999
2007-06-01 14:11 51°19.468 2°45.296 -999 -999 -999 -999 -999
2007-06-01 14:12 51°19.374 2°45.629 -999 -999 -999 -999 -999
2007-06-01 14:13 51°19.278 2°45.973 -999 -999 -999 -999 -999
2007-06-01 14:14 51°19.186 2°46.303 -999 -999 -999 -999 -999
2007-06-01 14:15 51°19.09 2°46.644 -999 -999 -999 -999 -999
2007-06-01 14:16 51°19.008 2°46.989 -999 -999 -999 -999 -999
2007-06-01 14:17 51°18.927 2°47.333 -999 -999 -999 -999 -999
2007-06-01 14:18 51°18.846 2°47.677 -999 -999 -999 -999 -999
2007-06-01 14:19 51°18.763 2°48.017 -999 -999 -999 -999 -999
2007-06-01 14:20 51°18.678 2°48.353 -999 -999 -999 -999 -999
2007-06-01 14:21 51°18.592 2°48.682 -999 -999 -999 -999 -999
2007-06-01 14:22 51°18.497 2°49.017 -999 -999 -999 -999 -999
2007-06-01 14:23 51°18.405 2°49.346 -999 -999 -999 -999 -999
2007-06-01 14:24 51°18.308 2°49.671 -999 -999 -999 -999 -999
2007-06-01 14:25 51°18.212 2°49.997 -999 -999 -999 -999 -999
2007-06-01 14:26 51°18.116 2°50.324 -999 -999 -999 -999 -999
2007-06-01 14:27 51°18.024 2°50.653 -999 -999 -999 -999 -999
2007-06-01 14:28 51°17.929 2°50.978 -999 -999 -999 -999 -999
2007-06-01 14:29 51°17.831 2°51.3 -999 -999 -999 -999 -999
2007-06-01 14:30 51°17.717 2°51.605 -999 -999 -999 -999 -999
2007-06-01 14:31 51°17.573 2°51.869 -999 -999 -999 -999 -999
2007-06-01 14:32 51°17.406 2°52.095 -999 -999 -999 -999 -999
2007-06-01 14:33 51°17.215 2°52.26 -999 -999 -999 -999 -999
2007-06-01 14:34 51°17.018 2°52.395 -999 -999 -999 -999 -999
2007-06-01 14:35 51°16.82 2°52.538 -999 -999 -999 -999 -999
2007-06-01 14:36 51°16.624 2°52.683 -999 -999 -999 -999 -999
2007-06-01 14:37 51°16.43 2°52.818 -999 -999 -999 -999 -999
2007-06-01 14:38 51°16.226 2°52.952 -999 -999 -999 -999 -999
2007-06-01 14:39 51°16.027 2°53.089 -999 -999 -999 -999 -999
2007-06-01 14:40 51°15.829 2°53.236 -999 -999 -999 -999 -999
2007-06-01 14:41 51°15.637 2°53.391 -999 -999 -999 -999 -999
2007-06-01 14:42 51°15.442 2°53.552 -999 -999 -999 -999 -999
2007-06-01 14:43 51°15.246 2°53.711 -999 -999 -999 -999 -999
2007-06-01 14:44 51°15.046 2°53.864 -999 -999 -999 -999 -999
2007-06-01 14:45 51°14.857 2°54.02 -999 -999 -999 -999 -999
2007-06-01 14:46 51°14.73 2°54.304 -999 -999 -999 -999 -999
2007-06-01 14:47 51°14.593 2°54.586 -999 -999 -999 -999 -999
2007-06-01 14:48 51°14.449 2°54.866 -999 -999 -999 -999 -999
2007-06-01 14:49 51°14.316 2°55.136 -999 -999 -999 -999 -999
2007-06-01 14:50 51°14.198 2°55.347 -999 -999 -999 -999 -999
2007-06-01 14:51 51°14.095 2°55.439 -999 -999 -999 -999 -999
2007-06-01 14:52 51°13.998 2°55.505 -999 -999 -999 -999 -999
2007-06-01 14:53 51°13.897 2°55.573 -999 -999 -999 -999 -999
2007-06-01 14:54 51°13.797 2°55.655 -999 -999 -999 -999 -999
2007-06-01 14:55 51°13.725 2°55.77 -999 -999 -999 -999 -999
2007-06-01 14:56 51°13.672 2°55.873 -999 -999 -999 -999 -999
2007-06-01 14:57 51°13.626 2°55.964 -999 -999 -999 -999 -999
2007-06-01 14:58 51°13.606 2°56.045 -999 -999 -999 -999 -999